"Pseudo-MPEC" for P20UAI3

Created 2019 Dec 10 23:07:14 UT using Find_Orb

Click here for an explanation of pseudo-MPECs

 
 Astrometry: 
     P20UAI3  C2019 11 24e1LAstrometryY2DCLAoQ8redacted;iE8WcclickVpjNJ?GOwl^F52
     P20UAI3  C2019 11 24BG#SM\elbr2#:!HR2fb(V7Ru8'L^fn_CG3fY`)Qhereb;.VpVb)BF52
     P20UAI3  C2019 11 24K1Rfor(TyT8?IwcJdikwOtN8explanationi\H_m1Bi\TBxLJ,K$F52

Station data:
(F52) Pan-STARRS 2, Haleakala  (N20.707384 W156.255910)  US/Hawaii. 1.8-m
   Ritchey-Chrétien + CCD.

Orbital elements:  P20UAI3
   Perihelion 2019 Oct 15.506490 +/- 277 TT = 12:09:20 (JD 2458772.006490)
Epoch 2019 Nov 25.0 TT = JDT 2458812.5   Earth MOID: 0.0013   Ma: 0.0078
M  28.19039117 +/- 90               (J2000 ecliptic)          AutoNEOCP
n   0.69617059 +/- 0.727            Peri.  312.40021 +/- 100
a   1.26083695 +/- 0.878            Node    72.54578 +/- 23
e   0.2636187 +/- 0.205             Incl.    1.19991 +/- 53
P   1.42/517.10d           H 21.8   G  0.15   U 12.5  SR
q 0.92845670 +/- 1.43    Q 1.59321720 +/- 41.6
From 3 observations 2019 Nov. 24 (33.5 min); mean residual 0".02
Residuals in arcseconds: 
191124 F52  .02-  .00     191124 F52  .04+  .00     191124 F52  .02-  .00     

Ephemerides (geocentric):
Date (UTC) HH   RA              Dec         delta   r     elong  mag " sig PA
---- -- -- --  -------------   -----------  ------ ------ -----  --- ---- ---
2019 12 10 23  10 27 02.964   +11 37 50.00  .20099 1.0519 104.1 20.7  51d   6
2019 12 11 00  10 27 02.348   +11 38 09.87  .20102 1.0520 104.1 20.7  51d   6
2019 12 11 01  10 27 01.725   +11 38 29.76  .20106 1.0522 104.2 20.7  51d   6
2019 12 11 02  10 27 01.097   +11 38 49.68  .20109 1.0523 104.2 20.7  51d   6
2019 12 11 03  10 27 00.463   +11 39 09.63  .20112 1.0525 104.3 20.7  51d   6
2019 12 11 04  10 26 59.824   +11 39 29.61  .20115 1.0527 104.3 20.7  51d   6
2019 12 11 05  10 26 59.179   +11 39 49.61  .20118 1.0528 104.4 20.7  51d   6
2019 12 11 06  10 26 58.528   +11 40 09.64  .20121 1.0530 104.4 20.7  51d   6
2019 12 11 07  10 26 57.871   +11 40 29.69  .20125 1.0531 104.5 20.7  51d   6
2019 12 11 08  10 26 57.209   +11 40 49.78  .20128 1.0533 104.5 20.7  51d   6
2019 12 11 09  10 26 56.541   +11 41 09.89  .20131 1.0534 104.6 20.7  51d   6
2019 12 11 10  10 26 55.867   +11 41 30.03  .20134 1.0536 104.6 20.7  51d   6
2019 12 11 11  10 26 55.187   +11 41 50.19  .20137 1.0538 104.7 20.7  51d   6
2019 12 11 12  10 26 54.502   +11 42 10.38  .20140 1.0539 104.7 20.7  51d   6
2019 12 11 13  10 26 53.811   +11 42 30.60  .20143 1.0541 104.7 20.7  51d   6
2019 12 11 14  10 26 53.114   +11 42 50.85  .20146 1.0542 104.8 20.7  51d   6
2019 12 11 15  10 26 52.411   +11 43 11.12  .20149 1.0544 104.8 20.7  51d   6
2019 12 11 16  10 26 51.702   +11 43 31.43  .20152 1.0545 104.9 20.7  51d   6
2019 12 11 17  10 26 50.988   +11 43 51.76  .20156 1.0547 104.9 20.7  51d   6
2019 12 11 18  10 26 50.268   +11 44 12.11  .20159 1.0549 105.0 20.7  51d   6
2019 12 11 19  10 26 49.541   +11 44 32.50  .20162 1.0550 105.0 20.7  51d   6
2019 12 11 20  10 26 48.809   +11 44 52.91  .20165 1.0552 105.1 20.7  51d   6
2019 12 11 21  10 26 48.072   +11 45 13.35  .20168 1.0553 105.1 20.7  51d   6
2019 12 11 22  10 26 47.328   +11 45 33.82  .20171 1.0555 105.2 20.7  51d   6
2019 12 11 23  10 26 46.578   +11 45 54.32  .20174 1.0556 105.2 20.7  51d   6
2019 12 12 00  10 26 45.823   +11 46 14.84  .20177 1.0558 105.3 20.7  52d   6
2019 12 12 01  10 26 45.061   +11 46 35.40  .20180 1.0560 105.3 20.7  52d   6
2019 12 12 02  10 26 44.294   +11 46 55.98  .20183 1.0561 105.4 20.7  52d   6
2019 12 12 03  10 26 43.521   +11 47 16.59  .20186 1.0563 105.4 20.7  52d   6
2019 12 12 04  10 26 42.742   +11 47 37.22  .20189 1.0564 105.5 20.7  52d   6
2019 12 12 05  10 26 41.957   +11 47 57.89  .20192 1.0566 105.5 20.7  52d   6
2019 12 12 06  10 26 41.166   +11 48 18.58  .20195 1.0568 105.5 20.7  52d   7
2019 12 12 07  10 26 40.369   +11 48 39.30  .20198 1.0569 105.6 20.7  52d   7
2019 12 12 08  10 26 39.566   +11 49 00.05  .20201 1.0571 105.6 20.7  52d   7
2019 12 12 09  10 26 38.757   +11 49 20.83  .20204 1.0572 105.7 20.7  53d   7
2019 12 12 10  10 26 37.942   +11 49 41.64  .20207 1.0574 105.7 20.7  53d   7
2019 12 12 11  10 26 37.121   +11 50 02.48  .20210 1.0575 105.8 20.7  53d   7
2019 12 12 12  10 26 36.294   +11 50 23.34  .20213 1.0577 105.8 20.7  54d   7
2019 12 12 13  10 26 35.461   +11 50 44.23  .20216 1.0579 105.9 20.7  54d   7
2019 12 12 14  10 26 34.622   +11 51 05.16  .20219 1.0580 105.9 20.7  54d   7
2019 12 12 15  10 26 33.777   +11 51 26.11  .20222 1.0582 106.0 20.7  54d   7
2019 12 12 16  10 26 32.926   +11 51 47.09  .20225 1.0583 106.0 20.7  54d   7
2019 12 12 17  10 26 32.069   +11 52 08.10  .20228 1.0585 106.1 20.7  54d   7
2019 12 12 18  10 26 31.205   +11 52 29.13  .20230 1.0587 106.1 20.7  54d   7
2019 12 12 19  10 26 30.336   +11 52 50.20  .20233 1.0588 106.2 20.7  54d   7
2019 12 12 20  10 26 29.461   +11 53 11.30  .20236 1.0590 106.2 20.7  54d   7
2019 12 12 21  10 26 28.579   +11 53 32.42  .20239 1.0591 106.3 20.7  54d   7
2019 12 12 22  10 26 27.692   +11 53 53.57  .20242 1.0593 106.3 20.7  54d   7